Location: Bazinghen
(50.8246°N, 1.6616°E)
Time: 13:17:27
(UTC+00:00)

MetOp-A - Pass Details

Date: 09 April 2020
Orbit: 819 x 821 km, 98.5° (Epoch: 25 May)

Event Time Altitude Azimuth Distance (km) Brightness Sun altitude
Exits shadow 19:13:32 - 145° (SE) 3,250 6.7 -5.9°
Reaches altitude 10° 19:15:41 10° 140° (SE) 2,415 6.1 -6.2°
Maximum altitude 19:20:49 49° 67° (ENE) 1,052 4.5 -7.0°
Drops below altitude 10° 19:25:58 10° 354° (N) 2,431 7.0 -7.8°
Sets 19:28:23 0° 349° (N) 3,367 7.8 -8.1°
